MAKERSAT 0

Last updated on Sun Apr 12 2026 00:03:55 GMT+0000 (Coordinated Universal Time)

1 43016U 17073D 26101.10707790 .00022007 00000+0 63498-3 0 9996 2 43016 97.4727 343.2173 0114368 150.4630 210.3137 15.29331854456202
UTC large
Height (km)
Speed (km/s)
/
Latitude / Longitude
Inclination (degrees)
Orbital Period (minutes)
Azimuth
Elevation
Range (km)
Doppler Factor

Next 0 passes for location: London (51.5072 / 0.1276)

Sorry there are no passes over London.
MAKERSAT 0